sat.trackr.live / text

‹ back to catalog

STARLINK-3121

NORAD 49428 · 2021-104W

PAYLOAD ACTIVE UNKNOWN

§ Identity

Operator
Country
US
Launch date
2021-11-13
Launch site
AFETR
Launch vehicle
Mass (kg)
RCS (m²)

Purposes: comms

External: N2YO · Heavens-Above · Gunter

§ Orbital elements

Epoch: 2026-09-12T22:58:13.960992Z

Period
94.99 min
Inclination
53.1586°
Eccentricity
0.0002083
Mean motion
15.15978228 rev/d
Perigee alt
516.6 km
Apogee alt
519.4 km
Semi-major
6,896.1 km
B*
1.0096e-3
RAAN
104.7267°
Arg perigee
124.7704°
Mean anomaly
235.3486°
Rev number
26,695

§ Raw data

STARLINK-31211 49428U 21104W   26255.95710603  .00019354  00000+0  10096-2 0  99952 49428  53.1586 104.7267 0002083 124.7704 235.3486 15.15978228266959

JSON: /api/v1/satellites/49428 · /tle

For live sub-satellite position, see the globe view (requires WebGL).

§ Visibility from observer

Set your observer location to see the next 7 days of passes ≥ 10°. The values pass through the URL so the page stays shareable.

No JS? Fill the form by hand. The geolocation button needs JavaScript.